Location: De Greiden
(52.9496°N, 5.9137°E)
Time: 02:11:19
(UTC+00:00)

Cosmos 1818 - Pass Details

Date: 24 January 2021
Orbit: 773 x 800 km, 65.0° (Epoch: 26 February)

Event Time Altitude Azimuth Distance (km) Brightness Sun altitude
Rises 18:01:41 0° 223° (SW) 3,274 7.6 -17.0°
Reaches altitude 10° 18:04:05 10° 224° (SW) 2,353 6.8 -17.4°
Maximum altitude 18:09:31 86° 313° (NW) 804 3.6 -18.2°
Enters shadow 18:12:50 25° 42° (NE) 1,576 4.7 -18.7°
